Showing default

CONTECSAT-1, 59117

Orbit data source: Space-Track

CONTECSAT-1, 59117 is a payload satellite owned by CONTEC (KR) in SSO that was launched on Mon, 04 Mar 2024 UTC via an FALCON 9 launch vehicle from the Air Force Western Test Range (AFWTR). Payload-class satellites include a variety of spacecraft equipped with specific instruments for various scientific and technological missions. These include communications satellites like Starlink; space stations such as the ISS; scientific satellites like the Hubble; Earth observation satellites from companies like Planet Labs, Umbra, and HawkEye 360; GPS; miniature CubeSats for education and research; and military/defense satellites.

Loading next visibility...
Identifier
59117, 2024-043V
Orbit
SSO
Country
Flag of KRKR / SKOR
Related business
Manufacturer
CONTEC
Mission
Operational Commercial Imaging
Bus & Motor
CUBESAT 16U, Unknown motor
Mass
~20 kg wet, ~20 kg dry
Launch date (UTC)
2024-03-04 (2 years ago)
Launch vehicle
FALCON 9
Launch site
Air Force Western Test Range (AFWTR)
Object type
Payload
Rocket body
Debris
Shape & HBR
Box, 0.1 m
Radar Cross Section
0.080 m², Medium (>0.1 m² and < 1m²)

Expand to show TLE details & history
Last TLE update: 10 hours ago

TLE from 10 hours ago
0 CONTECSAT-1
1 59117U 24043V   26130.18186676  .00006530  00000-0  18860-3 0  9991
2 59117  97.5591 270.1610 0010494  18.9394 341.2238 15.35971345121415
Epoch: 2026-05-10T04:21Z
TLE epoch observation values (Epoch: 2026-05-10T04:21:53.288Z)
Latitude
0.00005°
Longitude
-23.29967°
Altitude
454.352 km
Speed
7.644 km/s
True Right ascension
18h 00m 38s
True Declination
0° 00' 00"
Sunlit
Object was in full shadow at epoch
Visualization orbit readout
Latitude
Unknown
Longitude
Unknown
Altitude
Unknown
Speed
Unknown
Apparent Right ascension
Unknown
Apparent Declination
Unknown
Sunlit
N/A
Visualization observer readout
Local Sidereal Time
22:12:52
Azimuth
Unknown
Elevation
Unknown
Doppler factor
Unknown
Orbital elements
Apogee altitude
462.159 km
Perigee altitude
447.817 km
Semi-major axis
6,833.125 km
Eccentricity
0.00105
Inclination
97.5591°
RAAN
270.161°
Arg. of periapsis
18.9394°
True anomaly
341.18505°
Mean anomaly
341.2238°
Eccentric anomaly
341.20443°
Mean motion
3.8425 °/min
Orbital period
93.69 mins
BSTAR
0.0001886
Loading maneuver chart data...
Computing Atmospheric mass density...
Loading historical data...
Loading historical data...
Loading historical data...
Loading historical data...
Loading historical data...
Loading historical data...
Loading historical data...

Documentation

Showing up to 5 results
|